owner,sensor,date,latitude,longitude,vertical_datum,wind_speed,wind_to_direction,wind_speed_of_gust,qcFlag 
TCOON,ioos:station:TCOON:518:1,2017-03-01T00:00:00Z,29.5150,-94.5133,0.0,3.7,154.0,5.3,'11111222,11111222,11111222' 
TCOON,ioos:station:TCOON:518:1,2017-03-01T00:06:00Z,29.5150,-94.5133,0.0,3.6,160.0,5.2,'11111222,11111222,11111222' 
TCOON,ioos:station:TCOON:518:1,2017-03-01T00:12:00Z,29.5150,-94.5133,0.0,4.1,159.0,6.0,'11111222,11111222,11111222' 
TCOON,ioos:station:TCOON:518:1,2017-03-01T00:18:00Z,29.5150,-94.5133,0.0,4.1,159.0,6.0,'1111122,1111122,1111122' 
TCOON,ioos:station:TCOON:518:1,2017-03-01T00:24:00Z,29.5150,-94.5133,0.0,4.3,154.0,5.9,'11111222,11111222,11111222' 
TCOON,ioos:station:TCOON:518:1,2017-03-01T00:30:00Z,29.5150,-94.5133,0.0,3.6,160.0,5.2,'11111222,11111222,11111222' 
TCOON,ioos:station:TCOON:518:1,2017-03-01T00:36:00Z,29.5150,-94.5133,0.0,3.8,153.0,5.0,'11111222,11111222,11111222' 
TCOON,ioos:station:TCOON:518:1,2017-03-01T00:42:00Z,29.5150,-94.5133,0.0,4.0,153.0,5.9,'11111222,11111222,11111222' 
TCOON,ioos:station:TCOON:518:1,2017-03-01T00:48:00Z,29.5150,-94.5133,0.0,3.7,150.0,5.2,'11111222,11111222,11111222' 
TCOON,ioos:station:TCOON:518:1,2017-03-01T00:54:00Z,29.5150,-94.5133,0.0,3.8,155.0,5.2,'11111222,11111222,11111222' 
TCOON,ioos:station:TCOON:518:1,2017-03-01T01:00:00Z,29.5150,-94.5133,0.0,4.4,151.0,5.3,'11111222,11111222,11111222' 
TCOON,ioos:station:TCOON:518:1,2017-03-01T01:06:00Z,29.5150,-94.5133,0.0,4.4,151.0,5.5,'11111222,11111222,11111222' 
TCOON,ioos:station:TCOON:518:1,2017-03-01T01:12:00Z,29.5150,-94.5133,0.0,4.4,151.0,5.5,'11111222,11111222,11111222' 
TCOON,ioos:station:TCOON:518:1,2017-03-01T01:18:00Z,29.5150,-94.5133,0.0,4.4,151.0,5.5,'1111122,1111122,1111122' 
TCOON,ioos:station:TCOON:518:1,2017-03-01T01:24:00Z,29.5150,-94.5133,0.0,4.1,155.0,6.1,'11111222,11111222,11111222' 
TCOON,ioos:station:TCOON:518:1,2017-03-01T01:30:00Z,29.5150,-94.5133,0.0,4.2,159.0,5.5,'11111222,11111222,11111222' 
TCOON,ioos:station:TCOON:518:1,2017-03-01T01:36:00Z,29.5150,-94.5133,0.0,3.4,160.0,4.7,'11111222,11111222,11111222' 
TCOON,ioos:station:TCOON:518:1,2017-03-01T01:42:00Z,29.5150,-94.5133,0.0,3.7,162.0,5.1,'11111222,11111222,11111222' 
TCOON,ioos:station:TCOON:518:1,2017-03-01T01:48:00Z,29.5150,-94.5133,0.0,3.9,161.0,5.2,'11111222,11111222,11111222' 
TCOON,ioos:station:TCOON:518:1,2017-03-01T01:54:00Z,29.5150,-94.5133,0.0,3.6,161.0,5.5,'11111222,11111222,11111222' 
TCOON,ioos:station:TCOON:518:1,2017-03-01T02:00:00Z,29.5150,-94.5133,0.0,4.1,161.0,5.2,'11111222,11111222,11111222' 
TCOON,ioos:station:TCOON:518:1,2017-03-01T02:06:00Z,29.5150,-94.5133,0.0,4.3,163.0,6.0,'11111222,11111222,11111222' 
TCOON,ioos:station:TCOON:518:1,2017-03-01T02:12:00Z,29.5150,-94.5133,0.0,3.7,163.0,5.6,'11111222,11111222,11111222' 
TCOON,ioos:station:TCOON:518:1,2017-03-01T02:18:00Z,29.5150,-94.5133,0.0,3.7,163.0,5.6,'1111122,1111122,1111122' 
TCOON,ioos:station:TCOON:518:1,2017-03-01T02:24:00Z,29.5150,-94.5133,0.0,4.6,159.0,5.6,'11111222,11111222,11111222' 
TCOON,ioos:station:TCOON:518:1,2017-03-01T02:30:00Z,29.5150,-94.5133,0.0,4.1,158.0,5.7,'11111222,11111222,11111222' 
TCOON,ioos:station:TCOON:518:1,2017-03-01T02:36:00Z,29.5150,-94.5133,0.0,5.0,158.0,6.4,'11111222,11111222,11111222' 
TCOON,ioos:station:TCOON:518:1,2017-03-01T02:42:00Z,29.5150,-94.5133,0.0,4.7,159.0,6.5,'11111222,11111222,11111222' 
TCOON,ioos:station:TCOON:518:1,2017-03-01T02:48:00Z,29.5150,-94.5133,0.0,4.8,162.0,7.5,'11111222,11111222,11111222' 
TCOON,ioos:station:TCOON:518:1,2017-03-01T02:54:00Z,29.5150,-94.5133,0.0,5.1,165.0,7.6,'11111222,11111222,11111222' 
TCOON,ioos:station:TCOON:518:1,2017-03-01T03:00:00Z,29.5150,-94.5133,0.0,5.8,166.0,8.3,'11111222,11111222,11111222' 
TCOON,ioos:station:TCOON:518:1,2017-03-01T03:06:00Z,29.5150,-94.5133,0.0,5.6,162.0,7.3,'11111222,11111222,11111222' 
TCOON,ioos:station:TCOON:518:1,2017-03-01T03:12:00Z,29.5150,-94.5133,0.0,5.6,162.0,7.8,'11111222,11111222,11111222' 
TCOON,ioos:station:TCOON:518:1,2017-03-01T03:18:00Z,29.5150,-94.5133,0.0,5.6,162.0,7.8,'1111122,1111122,1111122' 
TCOON,ioos:station:TCOON:518:1,2017-03-01T03:24:00Z,29.5150,-94.5133,0.0,5.1,158.0,7.0,'11111222,11111222,11111222' 
TCOON,ioos:station:TCOON:518:1,2017-03-01T03:30:00Z,29.5150,-94.5133,0.0,5.4,159.0,7.2,'11111222,11111222,11111222' 
TCOON,ioos:station:TCOON:518:1,2017-03-01T03:36:00Z,29.5150,-94.5133,0.0,5.0,156.0,7.2,'11111222,11111222,11111222' 
TCOON,ioos:station:TCOON:518:1,2017-03-01T03:42:00Z,29.5150,-94.5133,0.0,5.8,155.0,7.6,'11111222,11111222,11111222' 
TCOON,ioos:station:TCOON:518:1,2017-03-01T03:48:00Z,29.5150,-94.5133,0.0,5.0,162.0,6.3,'11111222,11111222,11111222' 
TCOON,ioos:station:TCOON:518:1,2017-03-01T03:54:00Z,29.5150,-94.5133,0.0,4.9,162.0,6.3,'11111222,11111222,11111222' 
TCOON,ioos:station:TCOON:518:1,2017-03-01T04:00:00Z,29.5150,-94.5133,0.0,4.0,161.0,5.8,'11111222,11111222,11111222' 
TCOON,ioos:station:TCOON:518:1,2017-03-01T04:06:00Z,29.5150,-94.5133,0.0,4.0,163.0,5.2,'11111222,11111222,11111222' 
TCOON,ioos:station:TCOON:518:1,2017-03-01T04:12:00Z,29.5150,-94.5133,0.0,3.9,164.0,6.1,'11111222,11111222,11111222' 
TCOON,ioos:station:TCOON:518:1,2017-03-01T04:18:00Z,29.5150,-94.5133,0.0,3.9,164.0,6.1,'1111122,1111122,1111122' 
TCOON,ioos:station:TCOON:518:1,2017-03-01T04:24:00Z,29.5150,-94.5133,0.0,3.4,164.0,5.1,'11111222,11111222,11111222' 
TCOON,ioos:station:TCOON:518:1,2017-03-01T04:30:00Z,29.5150,-94.5133,0.0,3.9,161.0,5.4,'11111222,11111222,11111222' 
TCOON,ioos:station:TCOON:518:1,2017-03-01T04:36:00Z,29.5150,-94.5133,0.0,4.3,161.0,5.4,'11111222,11111222,11111222' 
TCOON,ioos:station:TCOON:518:1,2017-03-01T04:42:00Z,29.5150,-94.5133,0.0,4.3,157.0,5.3,'11111222,11111222,11111222' 
TCOON,ioos:station:TCOON:518:1,2017-03-01T04:48:00Z,29.5150,-94.5133,0.0,4.4,158.0,5.7,'11111222,11111222,11111222' 
TCOON,ioos:station:TCOON:518:1,2017-03-01T04:54:00Z,29.5150,-94.5133,0.0,4.4,160.0,5.9,'11111222,11111222,11111222' 
TCOON,ioos:station:TCOON:518:1,2017-03-01T05:00:00Z,29.5150,-94.5133,0.0,4.3,158.0,5.5,'11111222,11111222,11111222' 
TCOON,ioos:station:TCOON:518:1,2017-03-01T05:06:00Z,29.5150,-94.5133,0.0,4.5,159.0,6.0,'11111222,11111222,11111222' 
TCOON,ioos:station:TCOON:518:1,2017-03-01T05:12:00Z,29.5150,-94.5133,0.0,4.6,162.0,6.7,'11111222,11111222,11111222' 
TCOON,ioos:station:TCOON:518:1,2017-03-01T05:18:00Z,29.5150,-94.5133,0.0,4.6,162.0,6.7,'1111122,1111122,1111122' 
TCOON,ioos:station:TCOON:518:1,2017-03-01T05:24:00Z,29.5150,-94.5133,0.0,4.3,165.0,6.3,'11111222,11111222,11111222' 
TCOON,ioos:station:TCOON:518:1,2017-03-01T05:30:00Z,29.5150,-94.5133,0.0,3.3,169.0,5.8,'11111222,11111222,11111222' 
TCOON,ioos:station:TCOON:518:1,2017-03-01T05:36:00Z,29.5150,-94.5133,0.0,3.0,168.0,5.3,'11111222,11111222,11111222' 
TCOON,ioos:station:TCOON:518:1,2017-03-01T05:42:00Z,29.5150,-94.5133,0.0,3.5,169.0,5.4,'11111222,11111222,11111222' 
TCOON,ioos:station:TCOON:518:1,2017-03-01T05:48:00Z,29.5150,-94.5133,0.0,4.2,165.0,5.8,'11111222,11111222,11111222' 
TCOON,ioos:station:TCOON:518:1,2017-03-01T05:54:00Z,29.5150,-94.5133,0.0,5.6,165.0,7.1,'11111222,11111222,11111222' 
TCOON,ioos:station:TCOON:518:1,2017-03-01T06:00:00Z,29.5150,-94.5133,0.0,5.2,165.0,7.1,'11111222,11111222,11111222' 
TCOON,ioos:station:TCOON:518:1,2017-03-01T06:06:00Z,29.5150,-94.5133,0.0,5.0,163.0,6.6,'11111222,11111222,11111222' 
TCOON,ioos:station:TCOON:518:1,2017-03-01T06:12:00Z,29.5150,-94.5133,0.0,5.7,163.0,7.9,'11111222,11111222,11111222' 
TCOON,ioos:station:TCOON:518:1,2017-03-01T06:18:00Z,29.5150,-94.5133,0.0,5.7,163.0,7.9,'1111122,1111122,1111122' 
TCOON,ioos:station:TCOON:518:1,2017-03-01T06:24:00Z,29.5150,-94.5133,0.0,4.4,167.0,7.4,'11111222,11111222,11111222' 
TCOON,ioos:station:TCOON:518:1,2017-03-01T06:30:00Z,29.5150,-94.5133,0.0,4.5,168.0,6.6,'11111222,11111222,11111222' 
TCOON,ioos:station:TCOON:518:1,2017-03-01T06:36:00Z,29.5150,-94.5133,0.0,3.8,173.0,6.3,'11111222,11111222,11111222' 
TCOON,ioos:station:TCOON:518:1,2017-03-01T06:42:00Z,29.5150,-94.5133,0.0,3.9,172.0,6.8,'11111222,11111222,11111222' 
TCOON,ioos:station:TCOON:518:1,2017-03-01T06:48:00Z,29.5150,-94.5133,0.0,3.4,173.0,5.0,'11111222,11111222,11111222' 
TCOON,ioos:station:TCOON:518:1,2017-03-01T06:54:00Z,29.5150,-94.5133,0.0,3.2,177.0,5.1,'11111222,11111222,11111222' 
TCOON,ioos:station:TCOON:518:1,2017-03-01T07:00:00Z,29.5150,-94.5133,0.0,2.8,177.0,4.9,'11111222,11111222,11111222' 
TCOON,ioos:station:TCOON:518:1,2017-03-01T07:06:00Z,29.5150,-94.5133,0.0,3.6,174.0,5.7,'11111222,11111222,11111222' 
TCOON,ioos:station:TCOON:518:1,2017-03-01T07:12:00Z,29.5150,-94.5133,0.0,3.0,172.0,4.7,'11111222,11111222,11111222' 
TCOON,ioos:station:TCOON:518:1,2017-03-01T07:18:00Z,29.5150,-94.5133,0.0,3.0,172.0,4.7,'1111122,1111122,1111122' 
TCOON,ioos:station:TCOON:518:1,2017-03-01T07:24:00Z,29.5150,-94.5133,0.0,3.1,175.0,5.4,'11111222,11111222,11111222' 
TCOON,ioos:station:TCOON:518:1,2017-03-01T07:30:00Z,29.5150,-94.5133,0.0,3.1,173.0,6.6,'11111222,11111222,11111222' 
TCOON,ioos:station:TCOON:518:1,2017-03-01T07:36:00Z,29.5150,-94.5133,0.0,4.4,170.0,6.5,'11111222,11111222,11111222' 
TCOON,ioos:station:TCOON:518:1,2017-03-01T07:42:00Z,29.5150,-94.5133,0.0,5.0,167.0,7.2,'11111222,11111222,11111222' 
TCOON,ioos:station:TCOON:518:1,2017-03-01T07:48:00Z,29.5150,-94.5133,0.0,5.4,169.0,7.8,'11111222,11111222,11111222' 
TCOON,ioos:station:TCOON:518:1,2017-03-01T07:54:00Z,29.5150,-94.5133,0.0,4.8,170.0,7.2,'11111222,11111222,11111222' 
TCOON,ioos:station:TCOON:518:1,2017-03-01T08:00:00Z,29.5150,-94.5133,0.0,5.4,168.0,7.9,'11111222,11111222,11111222' 
TCOON,ioos:station:TCOON:518:1,2017-03-01T08:06:00Z,29.5150,-94.5133,0.0,5.7,168.0,8.1,'11111222,11111222,11111222' 
TCOON,ioos:station:TCOON:518:1,2017-03-01T08:12:00Z,29.5150,-94.5133,0.0,5.7,168.0,7.2,'11111222,11111222,11111222' 
TCOON,ioos:station:TCOON:518:1,2017-03-01T08:18:00Z,29.5150,-94.5133,0.0,5.7,168.0,7.2,'1111122,1111122,1111122' 
TCOON,ioos:station:TCOON:518:1,2017-03-01T08:24:00Z,29.5150,-94.5133,0.0,4.2,172.0,8.2,'11111222,11111222,11111222' 
TCOON,ioos:station:TCOON:518:1,2017-03-01T08:30:00Z,29.5150,-94.5133,0.0,5.0,171.0,7.9,'11111222,11111222,11111222' 
TCOON,ioos:station:TCOON:518:1,2017-03-01T08:36:00Z,29.5150,-94.5133,0.0,4.4,173.0,7.5,'11111222,11111222,11111222' 
TCOON,ioos:station:TCOON:518:1,2017-03-01T08:42:00Z,29.5150,-94.5133,0.0,4.5,172.0,6.7,'11111222,11111222,11111222' 
TCOON,ioos:station:TCOON:518:1,2017-03-01T08:48:00Z,29.5150,-94.5133,0.0,4.2,171.0,7.3,'11111222,11111222,11111222' 
TCOON,ioos:station:TCOON:518:1,2017-03-01T08:54:00Z,29.5150,-94.5133,0.0,3.3,177.0,5.7,'11111222,11111222,11111222' 
TCOON,ioos:station:TCOON:518:1,2017-03-01T09:00:00Z,29.5150,-94.5133,0.0,3.8,183.0,6.4,'11111222,11111222,11111222' 
TCOON,ioos:station:TCOON:518:1,2017-03-01T09:06:00Z,29.5150,-94.5133,0.0,3.0,190.0,5.2,'11111222,11111222,11111222' 
TCOON,ioos:station:TCOON:518:1,2017-03-01T09:12:00Z,29.5150,-94.5133,0.0,2.9,190.0,4.8,'11111222,11111222,11111222' 
TCOON,ioos:station:TCOON:518:1,2017-03-01T09:18:00Z,29.5150,-94.5133,0.0,2.9,190.0,4.8,'1111122,1111122,1111122' 
TCOON,ioos:station:TCOON:518:1,2017-03-01T09:24:00Z,29.5150,-94.5133,0.0,2.4,189.0,4.7,'11111222,11111222,11111222' 
TCOON,ioos:station:TCOON:518:1,2017-03-01T09:30:00Z,29.5150,-94.5133,0.0,2.7,186.0,4.3,'11111222,11111222,11111222' 
TCOON,ioos:station:TCOON:518:1,2017-03-01T09:36:00Z,29.5150,-94.5133,0.0,3.1,183.0,4.8,'11111222,11111222,11111222' 
TCOON,ioos:station:TCOON:518:1,2017-03-01T09:42:00Z,29.5150,-94.5133,0.0,2.8,184.0,4.7,'11111222,11111222,11111222' 
TCOON,ioos:station:TCOON:518:1,2017-03-01T09:48:00Z,29.5150,-94.5133,0.0,3.2,183.0,4.7,'11111222,11111222,11111222' 
TCOON,ioos:station:TCOON:518:1,2017-03-01T09:54:00Z,29.5150,-94.5133,0.0,3.1,182.0,4.5,'11111222,11111222,11111222' 
TCOON,ioos:station:TCOON:518:1,2017-03-01T10:00:00Z,29.5150,-94.5133,0.0,2.8,187.0,4.8,'11111222,11111222,11111222' 
TCOON,ioos:station:TCOON:518:1,2017-03-01T10:06:00Z,29.5150,-94.5133,0.0,2.9,190.0,4.1,'11111222,11111222,11111222' 
TCOON,ioos:station:TCOON:518:1,2017-03-01T10:12:00Z,29.5150,-94.5133,0.0,2.5,186.0,3.8,'11111222,11111222,11111222' 
TCOON,ioos:station:TCOON:518:1,2017-03-01T10:18:00Z,29.5150,-94.5133,0.0,2.5,186.0,3.8,'1111122,1111122,1111122' 
TCOON,ioos:station:TCOON:518:1,2017-03-01T10:24:00Z,29.5150,-94.5133,0.0,1.7,199.0,3.3,'11111222,11111222,11111222' 
TCOON,ioos:station:TCOON:518:1,2017-03-01T10:30:00Z,29.5150,-94.5133,0.0,1.6,197.0,2.3,'11111222,11111222,11111222' 
TCOON,ioos:station:TCOON:518:1,2017-03-01T10:36:00Z,29.5150,-94.5133,0.0,1.7,188.0,2.7,'11111222,11111222,11111222' 
TCOON,ioos:station:TCOON:518:1,2017-03-01T10:42:00Z,29.5150,-94.5133,0.0,1.6,188.0,3.5,'11111222,11111222,11111222' 
TCOON,ioos:station:TCOON:518:1,2017-03-01T10:48:00Z,29.5150,-94.5133,0.0,2.0,176.0,3.0,'11111222,11111222,11111222' 
TCOON,ioos:station:TCOON:518:1,2017-03-01T10:54:00Z,29.5150,-94.5133,0.0,2.4,178.0,3.4,'11111222,11111222,11111222' 
TCOON,ioos:station:TCOON:518:1,2017-03-01T11:00:00Z,29.5150,-94.5133,0.0,2.1,179.0,3.8,'11111222,11111222,11111222' 
TCOON,ioos:station:TCOON:518:1,2017-03-01T11:06:00Z,29.5150,-94.5133,0.0,2.2,178.0,4.0,'11111222,11111222,11111222' 
TCOON,ioos:station:TCOON:518:1,2017-03-01T11:12:00Z,29.5150,-94.5133,0.0,2.4,176.0,3.8,'11111222,11111222,11111222' 
TCOON,ioos:station:TCOON:518:1,2017-03-01T11:18:00Z,29.5150,-94.5133,0.0,2.4,176.0,3.8,'1111122,1111122,1111122' 
TCOON,ioos:station:TCOON:518:1,2017-03-01T11:24:00Z,29.5150,-94.5133,0.0,1.7,178.0,3.5,'11111222,11111222,11111222' 
TCOON,ioos:station:TCOON:518:1,2017-03-01T11:30:00Z,29.5150,-94.5133,0.0,1.4,187.0,3.4,'11111222,11111222,11111222' 
TCOON,ioos:station:TCOON:518:1,2017-03-01T11:36:00Z,29.5150,-94.5133,0.0,1.9,194.0,3.0,'11111222,11111222,11111222' 
TCOON,ioos:station:TCOON:518:1,2017-03-01T11:42:00Z,29.5150,-94.5133,0.0,1.1,203.0,2.9,'11111222,11111222,11111222' 
TCOON,ioos:station:TCOON:518:1,2017-03-01T11:48:00Z,29.5150,-94.5133,0.0,0.6,207.0,1.8,'11111222,11111222,11111222' 
TCOON,ioos:station:TCOON:518:1,2017-03-01T11:54:00Z,29.5150,-94.5133,0.0,1.1,192.0,1.8,'11111222,11111222,11111222' 
TCOON,ioos:station:TCOON:518:1,2017-03-01T12:00:00Z,29.5150,-94.5133,0.0,1.5,186.0,2.0,'11111222,11111222,11111222' 
TCOON,ioos:station:TCOON:518:1,2017-03-01T12:06:00Z,29.5150,-94.5133,0.0,1.3,196.0,2.1,'11111222,11111222,11111222' 
TCOON,ioos:station:TCOON:518:1,2017-03-01T12:12:00Z,29.5150,-94.5133,0.0,0.6,211.0,1.7,'11111222,11111222,11111222' 
TCOON,ioos:station:TCOON:518:1,2017-03-01T12:18:00Z,29.5150,-94.5133,0.0,0.6,211.0,1.7,'1111122,1111122,1111122' 
TCOON,ioos:station:TCOON:518:1,2017-03-01T12:24:00Z,29.5150,-94.5133,0.0,1.1,229.0,1.5,'11111222,11111222,11111222' 
TCOON,ioos:station:TCOON:518:1,2017-03-01T12:30:00Z,29.5150,-94.5133,0.0,1.0,227.0,1.5,'11111222,11111222,11111222' 
TCOON,ioos:station:TCOON:518:1,2017-03-01T12:36:00Z,29.5150,-94.5133,0.0,1.4,234.0,1.8,'11111222,11111222,11111222' 
TCOON,ioos:station:TCOON:518:1,2017-03-01T12:42:00Z,29.5150,-94.5133,0.0,2.8,287.0,3.4,'11111222,11111222,11111222' 
TCOON,ioos:station:TCOON:518:1,2017-03-01T12:48:00Z,29.5150,-94.5133,0.0,5.1,295.0,6.0,'11111222,11111222,11111222' 
TCOON,ioos:station:TCOON:518:1,2017-03-01T12:54:00Z,29.5150,-94.5133,0.0,4.7,294.0,6.0,'11111222,11111222,11111222' 
TCOON,ioos:station:TCOON:518:1,2017-03-01T13:00:00Z,29.5150,-94.5133,0.0,4.2,293.0,5.3,'11111222,11111222,11111222' 
TCOON,ioos:station:TCOON:518:1,2017-03-01T13:06:00Z,29.5150,-94.5133,0.0,3.2,281.0,4.6,'11111222,11111222,11111222' 
TCOON,ioos:station:TCOON:518:1,2017-03-01T13:12:00Z,29.5150,-94.5133,0.0,2.2,273.0,3.4,'11111222,11111222,11111222' 
TCOON,ioos:station:TCOON:518:1,2017-03-01T13:18:00Z,29.5150,-94.5133,0.0,2.2,273.0,3.4,'1111122,1111122,1111122' 
TCOON,ioos:station:TCOON:518:1,2017-03-01T13:24:00Z,29.5150,-94.5133,0.0,2.0,257.0,3.0,'11111222,11111222,11111222' 
TCOON,ioos:station:TCOON:518:1,2017-03-01T13:30:00Z,29.5150,-94.5133,0.0,2.1,241.0,3.1,'11111222,11111222,11111222' 
TCOON,ioos:station:TCOON:518:1,2017-03-01T13:36:00Z,29.5150,-94.5133,0.0,2.2,237.0,3.1,'11111222,11111222,11111222' 
TCOON,ioos:station:TCOON:518:1,2017-03-01T13:42:00Z,29.5150,-94.5133,0.0,1.8,227.0,2.8,'11111222,11111222,11111222' 
TCOON,ioos:station:TCOON:518:1,2017-03-01T13:48:00Z,29.5150,-94.5133,0.0,1.7,231.0,2.4,'11111222,11111222,11111222' 
TCOON,ioos:station:TCOON:518:1,2017-03-01T13:54:00Z,29.5150,-94.5133,0.0,1.1,201.0,2.4,'11111222,11111222,11111222' 
TCOON,ioos:station:TCOON:518:1,2017-03-01T14:00:00Z,29.5150,-94.5133,0.0,1.4,209.0,3.0,'11111222,11111222,11111222' 
TCOON,ioos:station:TCOON:518:1,2017-03-01T14:06:00Z,29.5150,-94.5133,0.0,2.0,193.0,2.6,'11111222,11111222,11111222' 
TCOON,ioos:station:TCOON:518:1,2017-03-01T14:12:00Z,29.5150,-94.5133,0.0,1.9,188.0,2.9,'11111222,11111222,11111222' 
TCOON,ioos:station:TCOON:518:1,2017-03-01T14:18:00Z,29.5150,-94.5133,0.0,1.9,188.0,2.9,'1111122,1111122,1111122' 
TCOON,ioos:station:TCOON:518:1,2017-03-01T14:24:00Z,29.5150,-94.5133,0.0,2.1,194.0,3.6,'11111222,11111222,11111222' 
TCOON,ioos:station:TCOON:518:1,2017-03-01T14:30:00Z,29.5150,-94.5133,0.0,1.8,194.0,3.7,'11111222,11111222,11111222' 
TCOON,ioos:station:TCOON:518:1,2017-03-01T14:36:00Z,29.5150,-94.5133,0.0,1.9,187.0,3.1,'11111222,11111222,11111222' 
TCOON,ioos:station:TCOON:518:1,2017-03-01T14:42:00Z,29.5150,-94.5133,0.0,2.0,184.0,2.9,'11111222,11111222,11111222' 
TCOON,ioos:station:TCOON:518:1,2017-03-01T14:48:00Z,29.5150,-94.5133,0.0,1.6,176.0,3.0,'11111222,11111222,11111222' 
TCOON,ioos:station:TCOON:518:1,2017-03-01T14:54:00Z,29.5150,-94.5133,0.0,2.0,185.0,3.3,'11111222,11111222,11111222' 
TCOON,ioos:station:TCOON:518:1,2017-03-01T15:00:00Z,29.5150,-94.5133,0.0,1.7,189.0,3.1,'11111222,11111222,11111222' 
TCOON,ioos:station:TCOON:518:1,2017-03-01T15:06:00Z,29.5150,-94.5133,0.0,1.9,195.0,3.7,'11111222,11111222,11111222' 
TCOON,ioos:station:TCOON:518:1,2017-03-01T15:12:00Z,29.5150,-94.5133,0.0,3.0,184.0,4.2,'11111222,11111222,11111222' 
TCOON,ioos:station:TCOON:518:1,2017-03-01T15:18:00Z,29.5150,-94.5133,0.0,3.0,184.0,4.2,'1111122,1111122,1111122' 
TCOON,ioos:station:TCOON:518:1,2017-03-01T15:24:00Z,29.5150,-94.5133,0.0,2.1,188.0,3.5,'11111222,11111222,11111222' 
TCOON,ioos:station:TCOON:518:1,2017-03-01T15:30:00Z,29.5150,-94.5133,0.0,2.1,185.0,3.6,'11111222,11111222,11111222' 
TCOON,ioos:station:TCOON:518:1,2017-03-01T15:36:00Z,29.5150,-94.5133,0.0,2.6,191.0,3.5,'11111222,11111222,11111222' 
TCOON,ioos:station:TCOON:518:1,2017-03-01T15:42:00Z,29.5150,-94.5133,0.0,1.8,195.0,3.2,'11111222,11111222,11111222' 
TCOON,ioos:station:TCOON:518:1,2017-03-01T15:48:00Z,29.5150,-94.5133,0.0,2.2,192.0,3.5,'11111222,11111222,11111222' 
TCOON,ioos:station:TCOON:518:1,2017-03-01T15:54:00Z,29.5150,-94.5133,0.0,2.2,195.0,4.0,'11111222,11111222,11111222' 
TCOON,ioos:station:TCOON:518:1,2017-03-01T16:00:00Z,29.5150,-94.5133,0.0,3.3,182.0,4.7,'11111222,11111222,11111222' 
TCOON,ioos:station:TCOON:518:1,2017-03-01T16:06:00Z,29.5150,-94.5133,0.0,3.4,186.0,5.0,'11111222,11111222,11111222' 
TCOON,ioos:station:TCOON:518:1,2017-03-01T16:12:00Z,29.5150,-94.5133,0.0,3.6,179.0,5.4,'11111222,11111222,11111222' 
TCOON,ioos:station:TCOON:518:1,2017-03-01T16:18:00Z,29.5150,-94.5133,0.0,3.6,179.0,5.4,'1111122,1111122,1111122' 
TCOON,ioos:station:TCOON:518:1,2017-03-01T16:24:00Z,29.5150,-94.5133,0.0,3.1,174.0,5.3,'11111222,11111222,11111222' 
TCOON,ioos:station:TCOON:518:1,2017-03-01T16:30:00Z,29.5150,-94.5133,0.0,3.4,182.0,5.5,'11111222,11111222,11111222' 
TCOON,ioos:station:TCOON:518:1,2017-03-01T16:36:00Z,29.5150,-94.5133,0.0,3.7,189.0,5.7,'11111222,11111222,11111222' 
TCOON,ioos:station:TCOON:518:1,2017-03-01T16:42:00Z,29.5150,-94.5133,0.0,4.5,188.0,6.3,'11111222,11111222,11111222' 
TCOON,ioos:station:TCOON:518:1,2017-03-01T16:48:00Z,29.5150,-94.5133,0.0,3.1,187.0,6.0,'11111222,11111222,11111222' 
TCOON,ioos:station:TCOON:518:1,2017-03-01T16:54:00Z,29.5150,-94.5133,0.0,3.5,195.0,5.4,'11111222,11111222,11111222' 
TCOON,ioos:station:TCOON:518:1,2017-03-01T17:00:00Z,29.5150,-94.5133,0.0,3.4,187.0,6.2,'11111222,11111222,11111222' 
TCOON,ioos:station:TCOON:518:1,2017-03-01T17:06:00Z,29.5150,-94.5133,0.0,2.1,202.0,4.7,'11111222,11111222,11111222' 
TCOON,ioos:station:TCOON:518:1,2017-03-01T17:12:00Z,29.5150,-94.5133,0.0,3.2,196.0,5.1,'11111222,11111222,11111222' 
TCOON,ioos:station:TCOON:518:1,2017-03-01T17:18:00Z,29.5150,-94.5133,0.0,3.2,196.0,5.1,'1111122,1111122,1111122' 
TCOON,ioos:station:TCOON:518:1,2017-03-01T17:24:00Z,29.5150,-94.5133,0.0,2.0,204.0,4.7,'11111222,11111222,11111222' 
TCOON,ioos:station:TCOON:518:1,2017-03-01T17:30:00Z,29.5150,-94.5133,0.0,2.7,205.0,5.2,'11111222,11111222,11111222' 
TCOON,ioos:station:TCOON:518:1,2017-03-01T17:36:00Z,29.5150,-94.5133,0.0,2.4,212.0,4.2,'11111222,11111222,11111222' 
TCOON,ioos:station:TCOON:518:1,2017-03-01T17:42:00Z,29.5150,-94.5133,0.0,3.1,199.0,4.5,'11111222,11111222,11111222' 
TCOON,ioos:station:TCOON:518:1,2017-03-01T17:48:00Z,29.5150,-94.5133,0.0,2.7,207.0,4.5,'11111222,11111222,11111222' 
TCOON,ioos:station:TCOON:518:1,2017-03-01T17:54:00Z,29.5150,-94.5133,0.0,2.7,199.0,5.5,'11111222,11111222,11111222' 
TCOON,ioos:station:TCOON:518:1,2017-03-01T18:00:00Z,29.5150,-94.5133,0.0,4.0,197.0,7.4,'11111222,11111222,11111222' 
TCOON,ioos:station:TCOON:518:1,2017-03-01T18:06:00Z,29.5150,-94.5133,0.0,1.8,197.0,6.3,'11111222,11111222,11111222' 
TCOON,ioos:station:TCOON:518:1,2017-03-01T18:12:00Z,29.5150,-94.5133,0.0,2.4,205.0,5.1,'11111222,11111222,11111222' 
TCOON,ioos:station:TCOON:518:1,2017-03-01T18:18:00Z,29.5150,-94.5133,0.0,2.4,205.0,5.1,'1111122,1111122,1111122' 
TCOON,ioos:station:TCOON:518:1,2017-03-01T18:24:00Z,29.5150,-94.5133,0.0,2.9,189.0,4.7,'11111222,11111222,11111222' 
TCOON,ioos:station:TCOON:518:1,2017-03-01T18:30:00Z,29.5150,-94.5133,0.0,3.7,187.0,5.7,'11111222,11111222,11111222' 
TCOON,ioos:station:TCOON:518:1,2017-03-01T18:36:00Z,29.5150,-94.5133,0.0,4.2,195.0,6.3,'11111222,11111222,11111222' 
TCOON,ioos:station:TCOON:518:1,2017-03-01T18:42:00Z,29.5150,-94.5133,0.0,3.3,200.0,6.7,'11111222,11111222,11111222' 
TCOON,ioos:station:TCOON:518:1,2017-03-01T18:48:00Z,29.5150,-94.5133,0.0,2.8,199.0,5.7,'11111222,11111222,11111222' 
TCOON,ioos:station:TCOON:518:1,2017-03-01T18:54:00Z,29.5150,-94.5133,0.0,2.9,201.0,5.0,'11111222,11111222,11111222' 
TCOON,ioos:station:TCOON:518:1,2017-03-01T19:00:00Z,29.5150,-94.5133,0.0,3.4,200.0,5.0,'11111222,11111222,11111222' 
TCOON,ioos:station:TCOON:518:1,2017-03-01T19:06:00Z,29.5150,-94.5133,0.0,2.7,206.0,5.1,'11111222,11111222,11111222' 
TCOON,ioos:station:TCOON:518:1,2017-03-01T19:12:00Z,29.5150,-94.5133,0.0,2.3,206.0,5.8,'11111222,11111222,11111222' 
TCOON,ioos:station:TCOON:518:1,2017-03-01T19:18:00Z,29.5150,-94.5133,0.0,2.3,206.0,5.8,'1111122,1111122,1111122' 
TCOON,ioos:station:TCOON:518:1,2017-03-01T19:24:00Z,29.5150,-94.5133,0.0,3.4,204.0,5.4,'11111222,11111222,11111222' 
TCOON,ioos:station:TCOON:518:1,2017-03-01T19:30:00Z,29.5150,-94.5133,0.0,3.0,206.0,5.2,'11111222,11111222,11111222' 
TCOON,ioos:station:TCOON:518:1,2017-03-01T19:36:00Z,29.5150,-94.5133,0.0,3.1,198.0,5.7,'11111222,11111222,11111222' 
TCOON,ioos:station:TCOON:518:1,2017-03-01T19:42:00Z,29.5150,-94.5133,0.0,2.3,195.0,5.3,'11111222,11111222,11111222' 
TCOON,ioos:station:TCOON:518:1,2017-03-01T19:48:00Z,29.5150,-94.5133,0.0,2.5,207.0,5.1,'11111222,11111222,11111222' 
TCOON,ioos:station:TCOON:518:1,2017-03-01T19:54:00Z,29.5150,-94.5133,0.0,2.2,203.0,5.1,'11111222,11111222,11111222' 
TCOON,ioos:station:TCOON:518:1,2017-03-01T20:00:00Z,29.5150,-94.5133,0.0,3.0,205.0,5.3,'11111222,11111222,11111222' 
TCOON,ioos:station:TCOON:518:1,2017-03-01T20:06:00Z,29.5150,-94.5133,0.0,3.9,198.0,5.7,'11111222,11111222,11111222' 
TCOON,ioos:station:TCOON:518:1,2017-03-01T20:12:00Z,29.5150,-94.5133,0.0,3.7,206.0,5.7,'11111222,11111222,11111222' 
TCOON,ioos:station:TCOON:518:1,2017-03-01T20:18:00Z,29.5150,-94.5133,0.0,3.7,206.0,5.7,'1111122,1111122,1111122' 